Welcome to Boston ARTCC, where excellence is served daily with a cup of MOCHA HAGoTDI


Whether you are a pilot, controller, or a little of both; ZBW is the premier airspace in VATSIM

News

Cross the Pond 2014 Eastbound - Pilot Briefing

ATTENTION ALL PILOTS:

The Cross the Pond 2014 Eastbound Pilot Briefing for pilots departing from Boston Logan Intl Airport (KBOS) is now available and is attached to this post in the vZBW forum. It can also be accessed on the Cross the Pond website under the pilot area.

Don't be afraid to contact us with any questions, comments, concerns, or suggestions. Most importantly, see you on the 25th!

2 weeks ago

ZBW Website NOTAM

Attention ZBW Controllers (and TS3 visitors):


Please update your settings to reflect the host as "bostonartcc.net" instead of "ts3.bostonartcc.net". Due to what appears to be local DNS caching issues, the old ts3 subdomain will no longer respond.


Please note that all email addresses are the same post-migration, however you may also elect to contact staff members through the roster.


Student Controllers

Please use the training center to request training sessions. This will provide a direct link for staff members to more easily monitor and manage training sessions.

3 weeks ago

ATC Online

Controller Position Frequency Sign-On
No controllers currently online.

Air Traffic

Inbound: 2 Outbound: 1 View All

CSA1PK LKPR BALTU UL984 DONAD ... PQI J55 ENE Pavel Kubac - LKPR
B/B77W/Q KBOS 34000 ETE: 8 hours
UAL2087 EGKK SAM1X/26L SAM UL620 ... TUSKY DCT OOSHN2 Casper Hvid Rasmussen EKCH
H/B77L KBOS 36000 ETE: 6 hours
BAW29G KBOS LBSTA ALLEX ELSIR ... UL975 WAL NUGRA Trevor Hannant
B/B773/F EGLL 37000 ETE: under 1 hour

Weather parsed

KBOS 211054Z 10005KT 10SM BKN060 BKN100 OVC200 12/10 A2997 RMK AO2 RAB0958E08 SLP147 P0000 T01170100

KMHT 211053Z 36004KT 10SM BKN049 OVC140 08/03 A2997 RMK AO2 SLP161 T00780033

KBDL 211051Z 04003KT 10SM SCT130 BKN170 BKN210 07/05 A2992 RMK AO2 SLP132 T00720050

KPVD 211051Z 35003KT 7SM CLR 09/08 A2994 RMK AO2 SLP140 T00890078